Zurück zum Katalog

CZ-3C DEB

AktivGTO
NORAD 39353·DEBRIS·🇨🇳 China

Gestartet Oct 31, 2010 von Xichang Satellite Launch Center

Loading…

TLE

AlterndSource: Space-Track

Epoche: Sep 14, 2026, 13:30 UTC

1 39353U 10057T   26257.56254655  .00000007  00000-0  35211-2 0  9997
2 39353  20.4013  46.8582 7145727 261.8481  25.8657  2.24423604105805

Verfolge CZ-3C DEB in Echtzeit mit AllMySat

Download on the App Store